THOR ABLESTAR DEB, 48830

Orbit data source: Space-Track

THOR ABLESTAR DEB, 48830 is space debris in LEO originally from a launch on Thu, 29 Jun 1961 UTC launched from the Air Force Eastern Test Range (AFETR). Debris objects in space refer to the collection of defunct objects orbiting the Earth. Examples of debris include non-operational satellites, rocket bodies, and fragments generated from explosions, collisions, or faulty payload assembly.

Loading next visibility...
Identifier
48830, 1961-015NJ
Orbit
LEO
Country
Flag of USUS
Related business
Manufacturer
Unknown
Mission
Spacecraft
Bus & Motor
Unknown
Mass
Unknown
Launch date (UTC)
1961-06-29 (65 years ago)
Launch vehicle
Unknown
Launch site
Air Force Eastern Test Range (AFETR)
Object type
Payload
Rocket body
Debris
Shape & HBR
Unknown shape, 0.1 m
Radar Cross Section
Small (<0.1 m²)

Expand to show TLE details & history
Last TLE update: 1 year ago

TLE from 1 year ago
0 THOR ABLESTAR DEB
1 48830U 61015NJ  25063.43860923  .00000505  00000-0  42145-3 0  9996
2 48830  66.9072  83.9376 0016505 226.8112 133.1592 13.96381581540389
Epoch: 2025-03-04T10:31Z
TLE epoch observation values (Epoch: 2025-03-04T10:31:35.837Z)
Latitude
-0.00005°
Longitude
123.59624°
Altitude
916.677 km
Speed
7.39 km/s
True Right ascension
05h 35m 45s
True Declination
0° 00' 00"
Sunlit
Object was in daylight at epoch
Visualization orbit readout
Latitude
Unknown
Longitude
Unknown
Altitude
Unknown
Speed
Unknown
Apparent Right ascension
Unknown
Apparent Declination
Unknown
Sunlit
N/A
Visualization observer readout
Local Sidereal Time
19:16:50
Azimuth
Unknown
Elevation
Unknown
Doppler factor
Unknown
Orbital elements
Apogee altitude
916.749 km
Perigee altitude
892.709 km
Semi-major axis
7,282.866 km
Eccentricity
0.00165
Inclination
66.9072°
RAAN
83.9376°
Arg. of periapsis
226.8112°
True anomaly
133.29697°
Mean anomaly
133.1592°
Eccentric anomaly
133.2281°
Mean motion
3.49212 °/min
Orbital period
103.09 mins
BSTAR
0.00042145

Documentation

Showing up to 5 results
|